{"data":{"norad_id":62863,"intl_designator":"2025-022K","name":"STARLINK-32808","alt_names":[],"object_type":"PAYLOAD","status":"ACTIVE","operator":null,"country":"US","launch_date":"2025-02-01","launch_site_code":"AFWTR","launch_vehicle":null,"mission":null,"orbit_class":"UNKNOWN","rcs_meters":null,"size_class":null,"mass_kg":null,"dimensions":null,"purposes":["comms"],"wikipedia_slug":null,"has_3d_model":false,"image_url":null,"decayed_at":null,"tle_current":{"epoch":"2026-09-21T09:05:25.995840Z","epoch_age_seconds":92246,"freshness":"FRESH","line1":"1 62863U 25022K   26264.37877310  .00021902  00000+0  65733-3 0  9992","line2":"2 62863  53.1594 297.6341 0001321  63.1903 296.9235 15.34406650 91904","mean_motion":15.3440665,"eccentricity":0.0001321,"inclination_deg":53.1594,"raan_deg":297.6341,"arg_perigee_deg":63.1903,"mean_anomaly_deg":296.9235,"bstar":0.00065733,"rev_number":9190,"period_min":93.847351352394,"perigee_km":461.77980269231,"apogee_km":463.58714746182,"semimajor_km":6840.8204750771,"source":"CELESTRAK","updated_at":"2026-09-22T09:00:49.677402Z"}}}